Location: Boone Canyon
(38.3180°N, 119.2504°W)
Time: 17:41:54
(UTC+00:00)

Cosmos 2263 Rocket - Pass Details

Date: 18 September 2020
Orbit: 822 x 849 km, 71.0° (Epoch: 19 October)

Event Time Altitude Azimuth Distance (km) Brightness Sun altitude
Rises 13:09:08 0° 329° (NNW) 3,399 5.1 -7.2°
Reaches altitude 10° 13:11:43 10° 322° (NW) 2,464 4.3 -6.7°
Maximum altitude 13:16:54 39° 255° (WSW) 1,251 2.7 -5.7°
Drops below altitude 10° 13:22:07 10° 188° (S) 2,462 4.5 -4.7°
Sets 13:24:41 0° 181° (S) 3,395 5.3 -4.2°
